Regional Weather Roundup
Issued by NWS

Home | Current Version | Previous Version | Graphics & Text | Print | Product List | Glossary On
Versions: 1 2 3 4 5 6 7 8 9 10 11 12 13 14 15 16 17 18 19 20 21 22 23 24 25 26 27 28 29 30 31 32 33 34 35 36 37 38 39 40 41 42 43 44 45 46 47 48 49 50
326
ASUS44 KJAN 201403
RWRMS

MISSISSIPPI HOURLY WEATHER ROUNDUP
NATIONAL WEATHER SERVICE JACKSON MS
800 AM CST SAT DEC 20 2014

NOTE: "FAIR: INDICATES FEW OR NO CLOUDS BELOW 12,000 FEET WITH NO
SIGNIFICANT WEATHER AND/OR OBSTRUCTIONS TO VISIBILITY.

MSZ001>002-007>008-010>013-018>021-025>028-034>036-201500-
NORTHWEST MISSISSIPPI

CITY           SKY/WX    TMP DP  RH WIND       PRES   REMARKS
CLARKSDALE     CLOUDY    36  36 100 CALM      30.29R
CLEVELAND      FAIR      37  36  96 NE6       30.27R WCI  33
GREENWOOD      CLEAR     37  35  92 N6        30.26R FOG     WCI  32
GREENVILLE     CLEAR     39  36  89 NE5       30.26R FOG
GRENADA        FAIR      36  34  93 CALM      30.28R
OLIVE BRANCH   MOCLDY    36  36 100 NE6       30.27S FOG     WCI  31
OXFORD         FAIR      32  32 100 NE3       30.28R FOG
TUNICA         CLOUDY    37  34  87 NE3       30.29R
$$

MSZ003>006-009-014>017-022>024-029>033-037>039-201500-
NORTHEAST MISSISSIPPI

CITY           SKY/WX    TMP DP  RH WIND       PRES   REMARKS
COLUMBUS AFB   SUNNY     37  36  94 N3        30.26R
CORINTH        FAIR      34  30  86 N3        30.26S
GOLDN TRIANGLE SUNNY     37  34  87 N7        30.24R FOG     WCI  32
STARKVILLE     FAIR      36  36 100 CALM      30.25R FOG
TUPELO         SUNNY     35  32  88 NE5       30.27R WCI  31
$$

MSZ040-058-201500-
CENTRAL MISSISSIPPI

CITY           SKY/WX    TMP DP  RH WIND       PRES   REMARKS
JACKSON INTL   CLOUDY    43  41  93 N9        30.22R
JACKSON HAWKNS CLOUDY    43  40  89 VRB3      30.22R
MERIDIAN KEY   CLOUDY    42  39  89 N10       30.22R
MERIDIAN NAS   CLOUDY    41  39  93 N7        30.23R FOG
RAYMOND        CLOUDY    43  37  81 CALM      30.22R
VICKSBURG      CLOUDY    44  41  89 NE9       30.23R FOG
$$

MSZ059>079-201500-
SOUTH MISSISSIPPI

CITY           SKY/WX    TMP DP  RH WIND       PRES   REMARKS
HATTIESBURG    CLOUDY    46  44  93 N7        30.18S
MCCOMB         CLOUDY    46  43  89 NE8       30.17R
NATCHEZ        CLOUDY    45  43  93 N9        30.20R
PINE BELT      CLOUDY    45  41  87 NE8       30.18S
$$

MSZ080>082-201500-
COASTAL MISSISSIPPI

CITY           SKY/WX    TMP DP  RH WIND       PRES   REMARKS
BAY ST LOUIS   CLOUDY    46  43  87 NE7       30.13S
BILOXI         CLOUDY    47  47 100 NE10      30.13R
PASCAGOULA     CLOUDY    47  46  97 NE12      30.13S
GULFPORT       CLOUDY    48  46  93 NE9       30.12S
$$



USA.gov is the U.S. government's official web portal to all federal, state and local government web resources and services.